Flag for U.S.A. Weather past 2 weeks in Modesto, California, U.S.A.

Now
86 °F

Sunny.


Feels Like: 85 °F
Forecast: 62 / 90 °F
Wind: 5 mph from Northeast

Location: Modesto City-County-Sham Field

Current Time: Aug 20, 2014 at 5:23:54 PM

Latest Report: Aug 20, 2014 at 4:53 PM


Visibility: 10 mi

Pressure: 29.82 "Hg

Humidity: 36%

Dew point: 56 °F

Location of ModestoLocation

Historic Weather in Modesto — Graph

°F

Modesto temperature yesterday

Maximum temperature yesterday: 88 °F (at 4:53 PM)
Minimum temperature yesterday: 61 °F (at 5:53 AM)
Average temperature yesterday: 73 °F

Past Weeks' High & Low Weather Summary

 TemperatureHumidityPressure
High96 °F (Aug 11, 3:53 PM)87% (Aug 20, 5:53 AM)29.99 "Hg (Aug 20, 5:53 AM)
Low59 °F (Aug 10, 5:53 AM)14% (Aug 17, 2:53 PM)29.70 "Hg (Aug 18, 6:53 PM)
Average77 °F48%29.87 "Hg
* Reported Aug 5 3:53 PM — Aug 20 3:53 PM, Modesto, Weather by CustomWeather, © 2014

Note: Actual official high and low records may vary slightly from our data, if they occured in-between our weather recording intervals... More about our weather records

Advertising

Modesto weather history for previous 24 hours

 ConditionsComfort  
Time TempWeatherWind HumidityBarometerVisibility
3:53 PM
Aug 20
85 °FSunny.3 mph37%29.83 "Hg10 mi
2:53 PM83 °FSunny.7 mph40%29.85 "Hg10 mi
1:53 PM80 °FSunny.3 mph44%29.87 "Hg10 mi
12:53 PM78 °FSunny.8 mph48%29.89 "Hg10 mi
11:53 AM76 °FSunny.No wind52%29.89 "Hg10 mi
10:53 AM72 °FSunny.5 mph59%29.90 "Hg10 mi
9:53 AM70 °FSunny.3 mph64%29.89 "Hg10 mi
8:53 AM67 °FSunny.7 mph71%29.89 "Hg10 mi
7:53 AM64 °FSunny.7 mph81%29.87 "Hg10 mi
6:53 AM62 °FClear.7 mph83%29.85 "Hg10 mi
5:53 AM61 °FClear.7 mph87%29.82 "Hg10 mi
4:53 AM62 °FClear.6 mph83%29.82 "Hg10 mi
3:53 AM63 °FClear.7 mph81%29.81 "Hg10 mi
2:53 AM64 °FClear.7 mph78%29.81 "Hg10 mi
1:53 AM64 °FClear.8 mph78%29.80 "Hg10 mi
12:53 AM66 °FClear.8 mph73%29.80 "Hg10 mi
11:53 PM
Aug 19
68 °FClear.8 mph68%29.78 "Hg10 mi
10:53 PM71 °FClear.8 mph61%29.77 "Hg10 mi
9:53 PM74 °FClear.8 mph57%29.77 "Hg10 mi
8:53 PM78 °FClear.9 mph48%29.76 "Hg10 mi
7:53 PM80 °FSunny.10 mph49%29.73 "Hg10 mi
6:53 PM83 °FSunny.9 mph41%29.72 "Hg10 mi
5:53 PM86 °FSunny.9 mph39%29.72 "Hg10 mi
Weather by CustomWeather, © 2014

See weather overviewHow to use our weather pages